EN

Hourly Weather Bolshoy Pinezh

Today, 16 April, Friday

Time Temperature Precipitation Wind Pressure Humidity
00:00 +5°C° 0 mm 6 mps 755 mmHg 87%
01:00 +5°C° 0 mm 6 mps 755 mmHg 85%
02:00 +5°C° 0 mm 6 mps 755 mmHg 83%
03:00 +4°C° 0 mm 6 mps 755 mmHg 82%
04:00 +4°C° 0 mm 6 mps 756 mmHg 82%
05:00 +5°C° 0 mm 5 mps 756 mmHg 81%
06:00 +5°C° 0 mm 5 mps 756 mmHg 81%
07:00 +5°C° 0 mm 5 mps 756 mmHg 80%
08:00 +5°C° 0 mm 5 mps 757 mmHg 78%
09:00 +6°C° 0 mm 5 mps 757 mmHg 76%
10:00 +7°C° 0 mm 5 mps 757 mmHg 71%
11:00 +8°C° 0 mm 5 mps 757 mmHg 65%
12:00 +9°C° 0 mm 5 mps 758 mmHg 60%
13:00 +9°C° 0 mm 5 mps 757 mmHg 57%
14:00 +10°C° 0 mm 5 mps 757 mmHg 55%
15:00 +10°C° 0 mm 5 mps 757 mmHg 52%
16:00 +10°C° 0 mm 5 mps 758 mmHg 53%
17:00 +10°C° 0 mm 4 mps 758 mmHg 54%
18:00 +8°C° 0 mm 4 mps 758 mmHg 55%
19:00 +7°C° 0 mm 4 mps 758 mmHg 58%
20:00 +6°C° 0 mm 4 mps 758 mmHg 61%
21:00 +5°C° 0 mm 4 mps 759 mmHg 63%
22:00 +4°C° 0 mm 4 mps 759 mmHg 65%
23:00 +3°C° 0 mm 4 mps 759 mmHg 68%

Tomorrow, 17 April, Saturday

Time Temperature Precipitation Wind Pressure Humidity
00:00 +3°C° 0 mm 3 mps 759 mmHg 70%
01:00 +2°C° 0 mm 3 mps 759 mmHg 72%
02:00 +1°C° 0 mm 3 mps 759 mmHg 73%
03:00 +1°C° 0 mm 3 mps 759 mmHg 75%
04:00 +1°C° 0 mm 3 mps 759 mmHg 75%
05:00 +1°C° 0 mm 3 mps 759 mmHg 74%
06:00 +1°C° 0 mm 3 mps 760 mmHg 73%
07:00 +3°C° 0 mm 3 mps 760 mmHg 65%
08:00 +4°C° 0 mm 4 mps 760 mmHg 56%
09:00 +6°C° 0 mm 4 mps 760 mmHg 48%
10:00 +7°C° 0 mm 4 mps 760 mmHg 44%
11:00 +8°C° 0 mm 5 mps 759 mmHg 41%
12:00 +10°C° 0 mm 5 mps 759 mmHg 37%
13:00 +11°C° 0 mm 4 mps 759 mmHg 37%
14:00 +11°C° 0 mm 4 mps 759 mmHg 37%
15:00 +12°C° 0 mm 4 mps 758 mmHg 37%
16:00 +11°C° 0 mm 4 mps 758 mmHg 41%
17:00 +10°C° 0 mm 3 mps 758 mmHg 46%
18:00 +9°C° 0 mm 2 mps 758 mmHg 50%
19:00 +8°C° 0 mm 2 mps 758 mmHg 56%
20:00 +6°C° 0 mm 2 mps 758 mmHg 62%
21:00 +5°C° 0 mm 2 mps 758 mmHg 68%
22:00 +4°C° 0 mm 2 mps 758 mmHg 70%
23:00 +3°C° 0 mm 3 mps 758 mmHg 73%

Day after tomorrow, 18 April, Sunday

Time Temperature Precipitation Wind Pressure Humidity
00:00 +3°C° 0 mm 3 mps 758 mmHg 75%
01:00 +3°C° 0 mm 2 mps 758 mmHg 77%
02:00 +3°C° 0 mm 2 mps 758 mmHg 79%
03:00 +2°C° 0 mm 2 mps 758 mmHg 81%
04:00 +2°C° 0 mm 2 mps 758 mmHg 80%
05:00 +3°C° 0 mm 2 mps 758 mmHg 80%
06:00 +3°C° 0 mm 2 mps 758 mmHg 80%
07:00 +4°C° 0 mm 3 mps 758 mmHg 72%
08:00 +7°C° 0 mm 3 mps 758 mmHg 63%
09:00 +8°C° 0 mm 4 mps 758 mmHg 55%
10:00 +8°C° 0 mm 4 mps 758 mmHg 52%
11:00 +10°C° 0 mm 4 mps 758 mmHg 48%
12:00 +11°C° 0 mm 4 mps 758 mmHg 45%
13:00 +11°C° 0 mm 4 mps 758 mmHg 44%
14:00 +12°C° 0 mm 5 mps 758 mmHg 44%
15:00 +12°C° 0 mm 5 mps 757 mmHg 43%
16:00 +10°C° 0 mm 5 mps 758 mmHg 50%
17:00 +8°C° 0 mm 5 mps 758 mmHg 57%
18:00 +7°C° 0 mm 6 mps 758 mmHg 64%
19:00 +6°C° 0 mm 5 mps 758 mmHg 65%
20:00 +5°C° 0 mm 5 mps 759 mmHg 65%
21:00 +3°C° 0 mm 5 mps 759 mmHg 66%
22:00 +3°C° 0 mm 5 mps 759 mmHg 64%
23:00 +4°C° 0 mm 4 mps 759 mmHg 63%

19 April, Monday

Time Temperature Precipitation Wind Pressure Humidity
00:00 +3°C° 0 mm 4 mps 760 mmHg 61%
01:00 +3°C° 0 mm 4 mps 760 mmHg 60%
02:00 +1°C° 0 mm 4 mps 760 mmHg 60%
03:00 +1°C° 0 mm 4 mps 760 mmHg 59%
04:00 0°C° 0 mm 4 mps 760 mmHg 60%
05:00 0°C° 0 mm 5 mps 761 mmHg 60%
06:00 0°C° 0 mm 5 mps 761 mmHg 61%
07:00 0°C° 0 mm 5 mps 761 mmHg 59%
08:00 +1°C° 0 mm 5 mps 761 mmHg 56%
09:00 +2°C° 0 mm 6 mps 761 mmHg 53%
10:00 +3°C° 0 mm 6 mps 762 mmHg 48%
11:00 +4°C° 0 mm 6 mps 762 mmHg 42%
12:00 +5°C° 0 mm 6 mps 762 mmHg 36%
13:00 +7°C° 0 mm 6 mps 761 mmHg 34%
14:00 +7°C° 0 mm 6 mps 761 mmHg 33%
15:00 +7°C° 0 mm 6 mps 761 mmHg 31%
16:00 +7°C° 0 mm 6 mps 761 mmHg 33%
17:00 +6°C° 0 mm 5 mps 761 mmHg 36%
18:00 +5°C° 0 mm 5 mps 761 mmHg 38%
19:00 +4°C° 0 mm 4 mps 762 mmHg 42%
20:00 +3°C° 0 mm 4 mps 762 mmHg 46%
21:00 +1°C° 0 mm 4 mps 762 mmHg 50%
22:00 0°C° 0 mm 4 mps 762 mmHg 51%
23:00 0°C° 0 mm 4 mps 762 mmHg 52%

20 April, Tuesday

Time Temperature Precipitation Wind Pressure Humidity
00:00 -1°C° 0 mm 4 mps 762 mmHg 53%
01:00 -1°C° 0 mm 4 mps 762 mmHg 54%
02:00 -2°C° 0 mm 4 mps 761 mmHg 56%
03:00 -2°C° 0 mm 4 mps 761 mmHg 57%
04:00 -2°C° 0 mm 5 mps 761 mmHg 57%
05:00 -2°C° 0 mm 5 mps 761 mmHg 56%
06:00 -2°C° 0 mm 5 mps 761 mmHg 55%
07:00 0°C° 0 mm 5 mps 761 mmHg 51%
08:00 +2°C° 0 mm 6 mps 761 mmHg 47%
09:00 +4°C° 0 mm 6 mps 761 mmHg 44%
10:00 +5°C° 0 mm 6 mps 761 mmHg 39%
11:00 +8°C° 0 mm 7 mps 760 mmHg 35%
12:00 +9°C° 0 mm 7 mps 760 mmHg 31%
13:00 +9°C° 0 mm 7 mps 760 mmHg 31%
14:00 +9°C° 0 mm 7 mps 759 mmHg 31%
15:00 +10°C° 0 mm 7 mps 759 mmHg 30%
16:00 +9°C° 0 mm 7 mps 759 mmHg 33%
17:00 +8°C° 0 mm 6 mps 758 mmHg 35%
18:00 +7°C° 0 mm 6 mps 758 mmHg 38%
19:00 +5°C° 0 mm 6 mps 758 mmHg 39%
20:00 +5°C° 0 mm 6 mps 758 mmHg 40%
21:00 +4°C° 0 mm 6 mps 758 mmHg 41%
22:00 +4°C° 0 mm 6 mps 757 mmHg 42%
23:00 +4°C° 0 mm 6 mps 757 mmHg 43%

21 April, Wednesday

Time Temperature Precipitation Wind Pressure Humidity
00:00 +4°C° 0 mm 7 mps 757 mmHg 44%
01:00 +3°C° 0 mm 7 mps 756 mmHg 45%
02:00 +3°C° 0 mm 7 mps 756 mmHg 47%
03:00 +2°C° 0 mm 7 mps 756 mmHg 49%
04:00 +2°C° 0 mm 6 mps 756 mmHg 50%
05:00 +2°C° 0 mm 6 mps 756 mmHg 52%
06:00 +2°C° 0 mm 6 mps 755 mmHg 53%
07:00 +1°C° 0.4 mm 6 mps 755 mmHg 61%
08:00 +1°C° 0.4 mm 6 mps 755 mmHg 70%
09:00 0°C° 0.4 mm 7 mps 755 mmHg 78%
10:00 +1°C° 0.4 mm 6 mps 755 mmHg 80%
11:00 +1°C° 0.4 mm 6 mps 756 mmHg 83%
12:00 +1°C° 0.4 mm 6 mps 756 mmHg 86%
13:00 +1°C° 0.2 mm 6 mps 756 mmHg 86%
14:00 +1°C° 0.2 mm 6 mps 756 mmHg 87%
15:00 +1°C° 0.2 mm 6 mps 756 mmHg 88%
16:00 +1°C° 0 mm 6 mps 756 mmHg 88%
17:00 +1°C° 0 mm 6 mps 756 mmHg 89%
18:00 +1°C° 0 mm 6 mps 756 mmHg 89%
19:00 +1°C° 0 mm 6 mps 756 mmHg 90%
20:00 +1°C° 0 mm 6 mps 756 mmHg 91%
21:00 +1°C° 0 mm 6 mps 756 mmHg 92%
22:00 +1°C° 0 mm 5 mps 756 mmHg 94%
23:00 +1°C° 0 mm 5 mps 756 mmHg 95%
Show more

We Need Your Consent

Meteoprog and our Service Providers may store and access personal data such as cookies, device identifiers or other similar technologies on your device and process such data to personalise content and ads, as well as provide social media features and to analyse the traffic.

  • Store and/or access information on your device

    Cookies, device identifiers or other information can be stored or accessed on your device for the purposes indicated above.

  • Personalised ads and content, ad and content measurement, audience insights, and products development

    Ads and content can be personalised based on a profile. More data can be added to better personalise ads and content. Ad and content performance can be measured. Insights about the audience who saw the ads and content can be derived. Such data can be used to develop or improve user’s experience, systems and software.

By clicking ‘I Agree’ you will allow the use of indicated cookies, device identifiers, web beacons or other similar technologies. Your settings can be changed in the browser on your device.

For certain purposes, legitimate interests may be relied on, rather than consent. You can read more about this in our Privacy and Cookie Policy.